AAL1165 KMIA-KSAV

Flight info

Callsign AAL1165
Flight time 1h 6m
Altitude 27000
Route ALTNN2 DUCEN Q87 VIYAP
Aircraft B38M/M-SDE1FGHILORVWXY/HB1

Departure

Time 2026-04-22 00:04
Airport Miami International Airport (KMIA)

Arrival

Time 2026-04-22 01:11
Airport Savannah Hilton Head International Airport (KSAV)
Time Latitude Longitude Altitude Speed Heading
2026-04-21 23:36 25.79699 -80.28175 20 ft 0 kts 25°
2026-04-21 23:50 25.79684 -80.28183 24 ft 4 kts 25°
2026-04-21 23:50 25.79664 -80.28193 21 ft 4 kts 18°
2026-04-21 23:50 25.79643 -80.28192 23 ft 4 kts 313°
2026-04-21 23:50 25.79634 -80.28168 24 ft 4 kts 288°
2026-04-21 23:51 25.79631 -80.28158 22 ft 1 kts 288°
2026-04-21 23:55 25.79634 -80.28170 22 ft 4 kts 288°
2026-04-21 23:55 25.79652 -80.28216 22 ft 9 kts 296°
2026-04-21 23:55 25.79674 -80.28301 20 ft 13 kts 272°
2026-04-21 23:55 25.79672 -80.28413 21 ft 16 kts 269°
2026-04-21 23:56 25.79660 -80.28541 23 ft 16 kts 259°
2026-04-21 23:56 25.79650 -80.28651 25 ft 13 kts 266°
2026-04-21 23:56 25.79642 -80.28742 25 ft 11 kts 266°
2026-04-21 23:56 25.79662 -80.28810 23 ft 9 kts 330°
2026-04-21 23:57 25.79720 -80.28813 25 ft 9 kts 358°
2026-04-21 23:57 25.79797 -80.28815 23 ft 14 kts 358°
2026-04-21 23:57 25.79887 -80.28818 24 ft 13 kts 357°
2026-04-21 23:57 25.79976 -80.28827 26 ft 15 kts 346°
2026-04-21 23:58 25.80012 -80.28909 23 ft 14 kts 270°
2026-04-21 23:58 25.80007 -80.29015 27 ft 12 kts 266°
2026-04-21 23:58 25.80002 -80.29123 24 ft 15 kts 267°
2026-04-21 23:58 25.79997 -80.29260 23 ft 22 kts 268°
2026-04-21 23:59 25.79989 -80.29452 18 ft 28 kts 267°
2026-04-21 23:59 25.79981 -80.29635 16 ft 18 kts 267°
2026-04-21 23:59 25.79976 -80.29772 18 ft 15 kts 267°
2026-04-21 23:59 25.79971 -80.29891 14 ft 11 kts 266°
2026-04-22 00:00 25.79974 -80.29947 14 ft 1 kts 284°
2026-04-22 00:02 25.79974 -80.29948 14 ft 0 kts 284°
2026-04-22 00:03 25.79976 -80.29956 14 ft 5 kts 284°
2026-04-22 00:03 25.79993 -80.30029 14 ft 14 kts 284°
2026-04-22 00:03 25.80038 -80.30126 17 ft 14 kts 336°
2026-04-22 00:03 25.80073 -80.30079 16 ft 11 kts 86°
2026-04-22 00:04 25.80080 -80.29926 16 ft 36 kts 87°
2026-04-22 00:04 25.80105 -80.29354 20 ft 110 kts 87°
2026-04-22 00:04 25.80154 -80.28290 110 ft 157 kts 85°
2026-04-22 00:04 25.80210 -80.27030 696 ft 173 kts 85°
2026-04-22 00:05 25.80309 -80.25759 1734 ft 158 kts 84°
2026-04-22 00:05 25.80371 -80.24471 2311 ft 178 kts 85°
2026-04-22 00:05 25.80430 -80.22997 2794 ft 204 kts 85°
2026-04-22 00:05 25.80489 -80.21338 3369 ft 225 kts 85°
2026-04-22 00:06 25.80551 -80.19532 4016 ft 245 kts 84°
2026-04-22 00:06 25.81056 -80.17741 4905 ft 246 kts 56°
2026-04-22 00:06 25.82324 -80.16438 5723 ft 258 kts 29°
2026-04-22 00:06 25.84066 -80.15936 6690 ft 261 kts
2026-04-22 00:07 25.85887 -80.15863 7472 ft 271 kts
2026-04-22 00:07 25.87796 -80.15792 8296 ft 275 kts
2026-04-22 00:07 25.89724 -80.15847 9057 ft 284 kts 348°
2026-04-22 00:07 25.91622 -80.16503 9907 ft 285 kts 343°
2026-04-22 00:08 25.93550 -80.17178 10527 ft 301 kts 343°
2026-04-22 00:08 25.95616 -80.17895 10896 ft 321 kts 342°
2026-04-22 00:08 25.97797 -80.18652 11422 ft 334 kts 342°
2026-04-22 00:08 26.00108 -80.19152 12034 ft 343 kts 354°
2026-04-22 00:09 26.02474 -80.19390 12881 ft 344 kts 354°
2026-04-22 00:09 26.04879 -80.19638 13674 ft 348 kts 354°
2026-04-22 00:09 26.07298 -80.19888 14507 ft 352 kts 354°
2026-04-22 00:09 26.09753 -80.20141 15345 ft 355 kts 353°
2026-04-22 00:10 26.12223 -80.20396 16142 ft 359 kts 353°
2026-04-22 00:10 26.14727 -80.20654 16928 ft 363 kts 353°
2026-04-22 00:10 26.17249 -80.20915 17674 ft 366 kts 353°
2026-04-22 00:10 26.19796 -80.21166 18393 ft 370 kts 353°
2026-04-22 00:11 26.22371 -80.21396 19092 ft 373 kts 353°
2026-04-22 00:11 26.24976 -80.21630 19740 ft 377 kts 352°
2026-04-22 00:11 26.27603 -80.21867 20383 ft 381 kts 352°
2026-04-22 00:11 26.30259 -80.22107 21002 ft 385 kts 352°
2026-04-22 00:12 26.32945 -80.22350 21599 ft 388 kts 351°
2026-04-22 00:12 26.35656 -80.22595 22155 ft 393 kts 351°
2026-04-22 00:12 26.38383 -80.22860 22710 ft 396 kts 350°
2026-04-22 00:12 26.41142 -80.23143 23252 ft 399 kts 350°
2026-04-22 00:13 26.43918 -80.23427 23803 ft 402 kts 350°
2026-04-22 00:13 26.46715 -80.23712 24330 ft 405 kts 349°
2026-04-22 00:13 26.49539 -80.24000 24870 ft 408 kts 349°
2026-04-22 00:13 26.52372 -80.24289 25415 ft 410 kts 350°
2026-04-22 00:14 26.55182 -80.24577 25977 ft 411 kts 349°
2026-04-22 00:14 26.58003 -80.25017 26489 ft 410 kts 346°
2026-04-22 00:14 26.60837 -80.25491 26996 ft 412 kts 347°
2026-04-22 00:14 26.63692 -80.25956 27225 ft 417 kts 347°
2026-04-22 00:15 26.66595 -80.26425 27248 ft 427 kts 347°
2026-04-22 00:15 26.69573 -80.26907 27253 ft 436 kts 346°
2026-04-22 00:15 26.72476 -80.27842 27262 ft 435 kts 335°
2026-04-22 00:15 26.75326 -80.29050 27240 ft 439 kts 336°
2026-04-22 00:16 26.78190 -80.30234 27255 ft 439 kts 336°
2026-04-22 00:16 26.81055 -80.31429 27255 ft 439 kts 336°
2026-04-22 00:16 26.83912 -80.32624 27257 ft 439 kts 336°
2026-04-22 00:16 26.86779 -80.33823 27256 ft 439 kts 336°
2026-04-22 00:17 26.89640 -80.35021 27256 ft 439 kts 336°
2026-04-22 00:17 26.92499 -80.36220 27257 ft 439 kts 336°
2026-04-22 00:17 26.95369 -80.37387 27257 ft 439 kts 337°
2026-04-22 00:17 26.98243 -80.38545 27258 ft 439 kts 337°
2026-04-22 00:18 27.01114 -80.39706 27258 ft 439 kts 337°
2026-04-22 00:18 27.03986 -80.40869 27258 ft 438 kts 337°
2026-04-22 00:18 27.06857 -80.42032 27264 ft 438 kts 337°
2026-04-22 00:18 27.09706 -80.43235 27266 ft 437 kts 335°
2026-04-22 00:19 27.12535 -80.44490 27267 ft 438 kts 335°
2026-04-22 00:19 27.15371 -80.45741 27268 ft 438 kts 335°
2026-04-22 00:19 27.18209 -80.46989 27268 ft 438 kts 335°
2026-04-22 00:19 27.21042 -80.48236 27266 ft 438 kts 335°
2026-04-22 00:20 27.23876 -80.49482 27266 ft 437 kts 335°
2026-04-22 00:20 27.26711 -80.50731 27265 ft 437 kts 335°
2026-04-22 00:20 27.29536 -80.51975 27269 ft 437 kts 335°
2026-04-22 00:20 27.32372 -80.53225 27264 ft 437 kts 335°
2026-04-22 00:21 27.35201 -80.54472 27267 ft 437 kts 335°
2026-04-22 00:21 27.38077 -80.55630 27271 ft 438 kts 338°
2026-04-22 00:21 27.40914 -80.56743 27271 ft 437 kts 337°
2026-04-22 00:21 27.43788 -80.57882 27274 ft 438 kts 337°
2026-04-22 00:22 27.46651 -80.59017 27254 ft 436 kts 337°
2026-04-22 00:22 27.49517 -80.60159 27270 ft 437 kts 337°
2026-04-22 00:22 27.52384 -80.61300 27276 ft 438 kts 337°
2026-04-22 00:22 27.55256 -80.62445 27275 ft 438 kts 337°
2026-04-22 00:23 27.58125 -80.63588 27277 ft 438 kts 337°
2026-04-22 00:23 27.60992 -80.64732 27275 ft 437 kts 337°
2026-04-22 00:23 27.63863 -80.65877 27276 ft 437 kts 337°
2026-04-22 00:23 27.66733 -80.67023 27277 ft 437 kts 337°
2026-04-22 00:24 27.69601 -80.68169 27274 ft 437 kts 337°
2026-04-22 00:24 27.72470 -80.69316 27266 ft 437 kts 337°
2026-04-22 00:24 27.75333 -80.70461 27274 ft 437 kts 337°
2026-04-22 00:24 27.78204 -80.71609 27273 ft 437 kts 337°
2026-04-22 00:25 27.81071 -80.72758 27274 ft 437 kts 337°
2026-04-22 00:25 27.83935 -80.73905 27274 ft 437 kts 337°
2026-04-22 00:25 27.86803 -80.75055 27273 ft 438 kts 337°
2026-04-22 00:25 27.89676 -80.76207 27276 ft 438 kts 337°
2026-04-22 00:26 27.91615 -80.76985 27276 ft 438 kts 337°
2026-04-22 00:26 27.94451 -80.78124 27275 ft 438 kts 337°
2026-04-22 00:26 27.97323 -80.79277 27275 ft 438 kts 337°
2026-04-22 00:26 28.00199 -80.80433 27274 ft 439 kts 337°
2026-04-22 00:27 28.03076 -80.81590 27275 ft 438 kts 337°
2026-04-22 00:27 28.05945 -80.82744 27276 ft 438 kts 337°
2026-04-22 00:27 28.08820 -80.83901 27274 ft 438 kts 337°
2026-04-22 00:27 28.11688 -80.85057 27276 ft 438 kts 337°
2026-04-22 00:28 28.14563 -80.86215 27275 ft 438 kts 337°
2026-04-22 00:28 28.17435 -80.87374 27276 ft 439 kts 337°
2026-04-22 00:28 28.20313 -80.88535 27276 ft 439 kts 337°
2026-04-22 00:28 28.23188 -80.89696 27278 ft 439 kts 337°
2026-04-22 00:29 28.26072 -80.90861 27287 ft 439 kts 337°
2026-04-22 00:29 28.28951 -80.92025 27292 ft 440 kts 337°
2026-04-22 00:29 28.31838 -80.93192 27293 ft 440 kts 337°
2026-04-22 00:29 28.34717 -80.94357 27294 ft 440 kts 337°
2026-04-22 00:30 28.37598 -80.95524 27298 ft 440 kts 337°
2026-04-22 00:30 28.40479 -80.96691 27294 ft 440 kts 337°
2026-04-22 00:30 28.43360 -80.97859 27296 ft 440 kts 337°
2026-04-22 00:30 28.46245 -80.99029 27302 ft 441 kts 337°
2026-04-22 00:31 28.49133 -81.00201 27302 ft 441 kts 337°
2026-04-22 00:31 28.52020 -81.01374 27302 ft 441 kts 337°
2026-04-22 00:31 28.54911 -81.02548 27295 ft 441 kts 337°
2026-04-22 00:31 28.57798 -81.03721 27294 ft 441 kts 337°
2026-04-22 00:32 28.60692 -81.04898 27294 ft 441 kts 337°
2026-04-22 00:32 28.63579 -81.06073 27295 ft 441 kts 337°
2026-04-22 00:32 28.66470 -81.07251 27293 ft 441 kts 337°
2026-04-22 00:32 28.69359 -81.08428 27293 ft 441 kts 337°
2026-04-22 00:33 28.72251 -81.09607 27294 ft 442 kts 337°
2026-04-22 00:33 28.75144 -81.10788 27294 ft 442 kts 337°
2026-04-22 00:33 28.78042 -81.11971 27293 ft 442 kts 337°
2026-04-22 00:33 28.80934 -81.13152 27293 ft 442 kts 337°
2026-04-22 00:34 28.83819 -81.14331 27293 ft 442 kts 337°
2026-04-22 00:34 28.86721 -81.15518 27294 ft 442 kts 337°
2026-04-22 00:34 28.89611 -81.16700 27294 ft 442 kts 337°
2026-04-22 00:34 28.92496 -81.17881 27297 ft 442 kts 337°
2026-04-22 00:35 28.95393 -81.19068 27302 ft 442 kts 337°
2026-04-22 00:35 28.98287 -81.20254 27301 ft 441 kts 337°
2026-04-22 00:35 29.01179 -81.21441 27303 ft 441 kts 337°
2026-04-22 00:35 29.04034 -81.22612 27306 ft 442 kts 337°
2026-04-22 00:36 29.06932 -81.23803 27311 ft 442 kts 337°
2026-04-22 00:36 29.09825 -81.24991 27311 ft 442 kts 337°
2026-04-22 00:36 29.12722 -81.26182 27311 ft 442 kts 337°
2026-04-22 00:36 29.15620 -81.27373 27312 ft 442 kts 337°
2026-04-22 00:37 29.18514 -81.28564 27311 ft 442 kts 337°
2026-04-22 00:37 29.21407 -81.29756 27310 ft 442 kts 337°
2026-04-22 00:37 29.24297 -81.30947 27305 ft 442 kts 337°
2026-04-22 00:37 29.27220 -81.32042 27290 ft 445 kts 345°
2026-04-22 00:38 29.30322 -81.32400 27316 ft 449 kts 353°
2026-04-22 00:38 29.33444 -81.32616 27291 ft 450 kts 353°
2026-04-22 00:38 29.36567 -81.32820 27303 ft 450 kts 353°
2026-04-22 00:38 29.39692 -81.33013 27302 ft 450 kts 353°
2026-04-22 00:39 29.42825 -81.33202 27302 ft 451 kts 353°
2026-04-22 00:39 29.45957 -81.33389 27303 ft 451 kts 353°
2026-04-22 00:39 29.49084 -81.33575 27302 ft 450 kts 353°
2026-04-22 00:39 29.52216 -81.33760 27303 ft 450 kts 353°
2026-04-22 00:40 29.55343 -81.33945 27303 ft 450 kts 353°
2026-04-22 00:40 29.58476 -81.34130 27302 ft 450 kts 353°
2026-04-22 00:40 29.61601 -81.34315 27303 ft 450 kts 353°
2026-04-22 00:40 29.64727 -81.34500 27303 ft 450 kts 353°
2026-04-22 00:41 29.67855 -81.34684 27302 ft 450 kts 353°
2026-04-22 00:41 29.70981 -81.34870 27303 ft 450 kts 353°
2026-04-22 00:41 29.74107 -81.35055 27303 ft 450 kts 353°
2026-04-22 00:41 29.77232 -81.35240 27302 ft 450 kts 353°
2026-04-22 00:42 29.80359 -81.35426 27303 ft 450 kts 353°
2026-04-22 00:42 29.83485 -81.35611 27301 ft 450 kts 353°
2026-04-22 00:42 29.86608 -81.35797 27308 ft 450 kts 353°
2026-04-22 00:42 29.89736 -81.35983 27311 ft 450 kts 353°
2026-04-22 00:43 29.92865 -81.36169 27312 ft 450 kts 353°
2026-04-22 00:43 29.95989 -81.36354 27311 ft 450 kts 353°
2026-04-22 00:43 29.99116 -81.36541 27312 ft 450 kts 353°
2026-04-22 00:43 30.02241 -81.36727 27311 ft 450 kts 353°
2026-04-22 00:44 30.05369 -81.36913 27312 ft 450 kts 353°
2026-04-22 00:44 30.08494 -81.37099 27312 ft 450 kts 353°
2026-04-22 00:44 30.11624 -81.37286 27312 ft 450 kts 353°
2026-04-22 00:44 30.14736 -81.37472 27312 ft 450 kts 353°
2026-04-22 00:45 30.17875 -81.37660 27307 ft 450 kts 353°
2026-04-22 00:45 30.20999 -81.37847 27303 ft 450 kts 353°
2026-04-22 00:45 30.24123 -81.38034 27303 ft 449 kts 353°
2026-04-22 00:45 30.27252 -81.38221 27303 ft 449 kts 353°
2026-04-22 00:46 30.30370 -81.38408 27302 ft 449 kts 353°
2026-04-22 00:46 30.33454 -81.38593 27303 ft 449 kts 353°
2026-04-22 00:46 30.36577 -81.38780 27303 ft 449 kts 353°
2026-04-22 00:46 30.39700 -81.38968 27303 ft 449 kts 353°
2026-04-22 00:47 30.42829 -81.39156 27303 ft 450 kts 353°
2026-04-22 00:47 30.45958 -81.39335 27302 ft 450 kts 354°
2026-04-22 00:47 30.49089 -81.39499 27300 ft 450 kts 353°
2026-04-22 00:47 30.52216 -81.39664 27307 ft 450 kts 353°
2026-04-22 00:48 30.55345 -81.39830 27311 ft 450 kts 353°
2026-04-22 00:48 30.58471 -81.39995 27315 ft 450 kts 353°
2026-04-22 00:48 30.61593 -81.40161 27320 ft 449 kts 353°
2026-04-22 00:48 30.64719 -81.40327 27320 ft 449 kts 353°
2026-04-22 00:49 30.67843 -81.40493 27307 ft 449 kts 353°
2026-04-22 00:49 30.70962 -81.40658 26206 ft 450 kts 353°
2026-04-22 00:49 30.74078 -81.40824 25498 ft 445 kts 354°
2026-04-22 00:49 30.77171 -81.40988 24507 ft 446 kts 354°
2026-04-22 00:50 30.80295 -81.41155 23335 ft 451 kts 354°
2026-04-22 00:50 30.83419 -81.41321 22528 ft 447 kts 354°
2026-04-22 00:50 30.86506 -81.41486 21845 ft 439 kts 355°
2026-04-22 00:50 30.89520 -81.41647 20869 ft 430 kts 355°
2026-04-22 00:51 30.92444 -81.41803 19819 ft 420 kts 355°
2026-04-22 00:51 30.95380 -81.41959 19148 ft 418 kts 355°
2026-04-22 00:51 30.98212 -81.42111 18436 ft 400 kts 355°
2026-04-22 00:51 31.00928 -81.42256 17437 ft 392 kts 356°
2026-04-22 00:52 31.03630 -81.42401 16435 ft 385 kts 356°
2026-04-22 00:52 31.06274 -81.42543 15579 ft 376 kts 356°
2026-04-22 00:52 31.08854 -81.42681 14883 ft 364 kts 356°
2026-04-22 00:52 31.11361 -81.42815 14300 ft 358 kts 356°
2026-04-22 00:53 31.13824 -81.42948 13779 ft 351 kts 357°
2026-04-22 00:53 31.16243 -81.43077 13509 ft 344 kts 357°
2026-04-22 00:53 31.18674 -81.43208 13288 ft 354 kts 357°
2026-04-22 00:53 31.21157 -81.43341 13064 ft 359 kts 357°
2026-04-22 00:54 31.23655 -81.43476 12851 ft 360 kts 357°
2026-04-22 00:54 31.26154 -81.43562 12638 ft 359 kts 359°
2026-04-22 00:54 31.28654 -81.43608 12501 ft 359 kts 359°
2026-04-22 00:54 31.31149 -81.43657 12506 ft 359 kts 359°
2026-04-22 00:55 31.33618 -81.43707 12508 ft 359 kts 359°
2026-04-22 00:55 31.36119 -81.43759 12507 ft 360 kts 359°
2026-04-22 00:55 31.41119 -81.43863 12434 ft 359 kts 359°
2026-04-22 00:56 31.43612 -81.43916 12147 ft 357 kts 359°
2026-04-22 00:56 31.46093 -81.43968 11862 ft 356 kts 359°
2026-04-22 00:56 31.48557 -81.44020 11572 ft 355 kts 359°
2026-04-22 00:56 31.51027 -81.44072 11280 ft 354 kts 359°
2026-04-22 00:57 31.53484 -81.44124 11035 ft 351 kts 359°
2026-04-22 00:57 31.55890 -81.44175 10807 ft 341 kts 359°
2026-04-22 00:57 31.58206 -81.44224 10375 ft 326 kts 359°
2026-04-22 00:57 31.60421 -81.44271 10022 ft 310 kts 359°
2026-04-22 00:58 31.62482 -81.44315 10024 ft 284 kts 359°
2026-04-22 00:58 31.64395 -81.44355 9853 ft 269 kts 359°
2026-04-22 00:58 31.66257 -81.44394 9342 ft 267 kts 359°
2026-04-22 00:58 31.68107 -81.44434 8809 ft 265 kts 359°
2026-04-22 00:59 31.69942 -81.44472 8359 ft 261 kts 359°
2026-04-22 00:59 31.71732 -81.44511 8019 ft 253 kts 359°
2026-04-22 00:59 31.73440 -81.44547 7732 ft 246 kts 359°
2026-04-22 00:59 31.75188 -81.44584 7478 ft 256 kts 359°
2026-04-22 01:00 31.76988 -81.44622 7173 ft 260 kts 359°
2026-04-22 01:00 31.78805 -81.44660 6883 ft 262 kts 359°
2026-04-22 01:00 31.80626 -81.44699 6590 ft 262 kts 359°
2026-04-22 01:00 31.82445 -81.44738 6288 ft 260 kts 359°
2026-04-22 01:01 31.84249 -81.44777 5997 ft 259 kts 359°
2026-04-22 01:01 31.86048 -81.44815 5704 ft 257 kts 359°
2026-04-22 01:01 31.87829 -81.44853 5395 ft 255 kts 360°
2026-04-22 01:01 31.89597 -81.44890 5124 ft 253 kts 360°
2026-04-22 01:02 31.91356 -81.44929 4840 ft 252 kts
2026-04-22 01:02 31.93108 -81.44966 4555 ft 251 kts
2026-04-22 01:02 31.94849 -81.45002 4266 ft 249 kts
2026-04-22 01:02 31.96564 -81.45038 4110 ft 243 kts
2026-04-22 01:03 31.98216 -81.45074 4029 ft 232 kts
2026-04-22 01:03 31.99785 -81.45108 3916 ft 217 kts
2026-04-22 01:03 32.01244 -81.45140 3763 ft 203 kts
2026-04-22 01:03 32.02609 -81.45170 3621 ft 190 kts
2026-04-22 01:04 32.03888 -81.45199 3504 ft 178 kts
2026-04-22 01:04 32.05098 -81.45223 3408 ft 173 kts
2026-04-22 01:04 32.06306 -81.45248 3306 ft 174 kts
2026-04-22 01:04 32.07513 -81.45274 3214 ft 174 kts
2026-04-22 01:05 32.08727 -81.45299 3122 ft 174 kts
2026-04-22 01:05 32.09940 -81.45324 2915 ft 174 kts
2026-04-22 01:05 32.11147 -81.45333 2669 ft 172 kts
2026-04-22 01:05 32.12166 -81.44804 2478 ft 153 kts 47°
2026-04-22 01:06 32.12696 -81.43761 2417 ft 149 kts 77°
2026-04-22 01:06 32.12826 -81.42544 2602 ft 151 kts 88°
2026-04-22 01:06 32.12880 -81.41299 2666 ft 152 kts 89°
2026-04-22 01:06 32.12951 -81.40055 2667 ft 152 kts 88°
2026-04-22 01:07 32.12991 -81.38808 2660 ft 152 kts 90°
2026-04-22 01:07 32.13000 -81.37569 2520 ft 150 kts 91°
2026-04-22 01:07 32.12998 -81.36342 2383 ft 150 kts 91°
2026-04-22 01:07 32.12989 -81.35110 2206 ft 150 kts 91°
2026-04-22 01:08 32.12980 -81.33899 2043 ft 147 kts 91°
2026-04-22 01:08 32.12971 -81.32710 1834 ft 142 kts 91°
2026-04-22 01:08 32.12961 -81.31551 1642 ft 141 kts 91°
2026-04-22 01:08 32.12950 -81.30396 1457 ft 141 kts 91°
2026-04-22 01:09 32.12940 -81.29236 1269 ft 141 kts 91°
2026-04-22 01:09 32.12930 -81.28082 1081 ft 141 kts 91°
2026-04-22 01:09 32.12919 -81.26930 896 ft 141 kts 91°
2026-04-22 01:09 32.12910 -81.25780 699 ft 140 kts 91°
2026-04-22 01:10 32.12899 -81.24629 521 ft 140 kts 91°
2026-04-22 01:10 32.12891 -81.23477 334 ft 141 kts 91°
2026-04-22 01:10 32.12880 -81.22324 162 ft 141 kts 91°
2026-04-22 01:10 32.12870 -81.21188 49 ft 130 kts 91°
2026-04-22 01:11 32.12861 -81.20301 45 ft 74 kts 91°
2026-04-22 01:11 32.12855 -81.19937 43 ft 21 kts 91°
2026-04-22 01:11 32.12901 -81.19818 45 ft 17 kts
2026-04-22 01:11 32.13000 -81.19820 53 ft 12 kts 335°
2026-04-22 01:12 32.13024 -81.19920 49 ft 16 kts 270°
2026-04-22 01:12 32.13025 -81.20076 50 ft 20 kts 271°
2026-04-22 01:12 32.13028 -81.20238 49 ft 19 kts 272°
2026-04-22 01:12 32.13046 -81.20312 55 ft 14 kts 315°
2026-04-22 01:13 32.13149 -81.20328 56 ft 17 kts
2026-04-22 01:13 32.13274 -81.20330 54 ft 19 kts 359°
2026-04-22 01:13 32.13416 -81.20332 52 ft 20 kts 359°
2026-04-22 01:13 32.13509 -81.20332 52 ft 9 kts 360°
2026-04-22 01:14 32.13584 -81.20332 56 ft 12 kts
2026-04-22 01:14 32.13663 -81.20363 54 ft 13 kts 287°
2026-04-22 01:14 32.13674 -81.20479 53 ft 14 kts 268°
2026-04-22 01:14 32.13672 -81.20583 56 ft 10 kts 269°
2026-04-22 01:15 32.13672 -81.20659 56 ft 9 kts 270°
2026-04-22 01:15 32.13673 -81.20721 56 ft 1 kts 270°
2026-04-22 01:16 32.13673 -81.20722 56 ft 1 kts 270°
2026-04-22 01:17 32.13656 -81.20756 56 ft 8 kts 206°
2026-04-22 01:17 32.13617 -81.20761 50 ft 2 kts 181°
2026-04-22 01:17 32.13606 -81.20762 56 ft 0 kts 180°